Wind_Speed
20 20 21 22 22 22 23 23 23 23 24 24 25 25 26 26 26 26 27 28 28 29 29 29 30 31 30 29 29 29 29 28 28 27 27 26 26 27 25 25 22 15 15 21 24 28 32 31 30 31 30 30 31 32 33 35 36 36 37 37 35 35 33
21 21 22 22 22 22 23 24 24 24 24 25 26 26 26 26 26 28 29 29 29 30 29 29 31 31 31 30 30 31 30 29 29 27 28 27 26 27 27 25 24 21 17 19 24 27 30 30 29 31 30 28 29 30 30 32 33 33 34 34 33 33 34
21 22 22 23 23 23 24 24 24 24 25 25 26 27 27 27 27 28 29 30 30 31 30 30 31 32 31 30 29 31 30 29 29 28 27 28 27 27 29 27 26 25 22 21 23 26 28 27 27 31 31 28 28 28 27 28 31 32 33 34 33 33 34
22 22 23 24 24 24 24 25 25 26 26 27 27 28 28 28 29 30 30 31 31 32 31 31 31 31 31 30 29 30 29 28 29 29 29 30 28 27 28 28 26 27 26 23 22 25 27 25 26 29 30 27 27 27 26 27 29 30 32 34 33 33 34
23 23 24 24 25 26 26 26 27 27 28 28 28 29 30 30 31 32 32 32 32 32 32 31 31 31 30 29 29 29 29 28 27 27 28 29 28 27 26 26 25 26 26 24 23 24 25 26 26 28 30 28 27 28 28 28 29 30 31 34 36 36 36
24 24 25 26 26 26 27 27 27 27 29 30 30 30 31 32 33 33 33 33 32 32 32 31 31 31 30 29 29 30 30 29 29 29 29 30 30 29 27 27 27 27 26 25 26 25 25 26 26 27 29 29 27 27 27 27 28 28 29 31 33 35 36
25 25 26 27 27 27 27 28 28 29 30 31 32 32 33 34 34 33 33 33 33 32 32 32 32 32 32 32 32 32 32 32 32 32 33 33 33 32 31 30 31 31 29 27 26 26 25 26 26 27 29 29 27 27 28 27 25 25 26 28 29 31 32
27 27 27 27 28 27 27 28 30 31 31 32 34 35 35 35 34 34 34 34 35 34 34 34 34 34 35 35 35 36 36 36 36 35 35 36 36 34 33 31 30 29 28 27 25 25 25 26 25 25 28 28 24 23 25 25 23 23 24 26 27 30 30
27 28 28 29 28 28 29 29 31 32 32 34 36 36 35 35 34 34 35 35 36 36 35 35 36 37 38 39 39 40 40 40 40 39 38 39 38 35 33 31 28 26 26 25 24 24 25 24 23 23 24 23 22 22 23 24 24 25 24 23 25 26 27
27 28 29 30 30 30 30 31 33 34 34 34 36 36 36 36 35 34 35 34 34 35 35 35 35 37 38 39 40 41 41 42 43 42 42 42 40 37 33 30 29 28 27 25 22 22 23 20 20 23 24 24 25 25 25 24 23 24 23 21 22 24 25
29 29 30 30 31 31 31 33 34 34 35 36 37 37 38 39 38 34 33 34 33 34 34 34 34 35 35 35 37 38 40 41 42 42 43 44 43 42 39 35 31 29 28 26 23 23 23 20 20 25 27 27 27 25 25 25 24 23 22 18 14 14 18
29 30 30 30 31 31 32 35 35 34 36 38 38 37 37 39 39 35 32 32 33 33 33 33 34 34 35 35 36 37 39 40 40 41 41 43 44 45 45 44 41 37 35 32 28 26 26 25 26 28 29 30 29 27 27 27 26 24 22 20 16 15 17
30 30 31 30 32 32 33 35 36 35 37 38 38 37 36 38 40 36 32 31 31 32 32 33 34 35 36 37 36 36 37 38 40 40 41 42 42 43 44 46 47 46 43 40 35 31 30 33 32 30 32 34 32 30 28 27 27 26 24 23 21 22 23
30 31 31 31 32 33 34 36 37 36 37 38 38 37 36 37 37 32 30 30 30 30 32 33 34 36 37 37 37 37 37 38 39 40 40 41 41 41 42 43 44 46 46 45 42 37 37 40 40 38 40 41 36 33 33 30 28 27 26 27 28 29 29
31 31 31 31 31 33 35 37 37 36 37 39 37 35 36 37 34 31 30 30 29 30 31 32 33 35 37 37 38 37 36 36 37 38 38 39 39 39 40 41 43 45 46 47 46 45 44 46 46 46 46 46 43 41 41 39 35 32 30 31 31 31 31
30 31 31 31 31 33 36 38 37 36 37 39 37 36 36 36 34 31 29 29 30 30 31 31 32 33 34 35 37 37 36 36 37 37 37 38 39 40 40 42 44 46 46 47 48 50 51 50 51 50 49 50 48 46 47 44 39 35 32 29 25 23 26
31 31 31 32 32 32 35 38 37 36 38 39 37 36 36 34 31 29 28 30 31 30 30 30 29 30 32 34 36 37 38 39 39 38 37 36 37 38 38 39 43 44 45 48 50 52 54 54 54 53 52 53 50 49 49 43 34 33 32 26 17 14 20
32 32 31 31 31 31 33 37 38 37 38 38 35 35 35 33 30 29 29 29 28 28 28 29 29 30 31 34 37 38 38 39 39 37 35 33 33 35 35 37 39 39 41 45 48 51 53 54 55 54 54 55 54 52 51 43 36 36 33 25 17 15 18
31 32 31 31 31 32 32 36 39 39 37 36 35 34 35 34 30 28 26 26 27 28 28 27 28 29 31 33 35 36 38 39 38 36 34 34 34 34 34 35 35 35 37 40 42 46 48 50 51 51 49 48 49 50 49 45 41 39 33 26 24 23 17
31 32 33 32 32 33 34 36 38 37 35 35 35 35 35 33 29 25 26 27 27 27 26 26 28 29 29 31 33 36 38 38 38 38 38 36 32 29 30 33 33 34 34 36 39 44 45 45 45 46 44 41 40 41 42 42 40 37 33 29 29 28 21
32 32 34 34 33 33 33 33 34 34 33 32 33 34 34 33 30 28 28 28 25 24 25 27 28 28 28 30 34 37 38 39 41 42 38 32 29 29 32 33 32 31 31 35 40 40 37 37 38 39 39 37 36 37 39 41 40 39 37 35 32 29 24
33 33 33 33 31 30 31 31 31 31 30 30 31 33 33 33 33 33 30 25 23 25 27 28 30 31 32 33 35 37 38 40 42 40 35 32 32 35 36 35 32 29 29 34 37 31 28 30 32 33 33 34 35 37 39 41 43 43 42 41 40 35 29
31 30 31 31 29 28 28 28 29 28 27 28 31 33 33 33 35 35 31 27 26 29 31 32 33 34 35 35 36 37 40 42 40 36 33 33 35 36 36 33 30 26 25 29 30 25 23 25 27 28 29 31 34 37 39 41 43 44 44 44 43 41 38
28 27 27 28 28 27 27 27 27 27 27 29 30 31 32 33 35 34 31 30 32 34 34 34 34 35 35 36 38 40 41 39 36 32 31 32 33 33 32 28 25 24 23 24 24 19 19 22 25 26 29 32 35 37 38 39 40 41 42 42 42 41 41
26 26 26 26 27 28 27 26 26 27 28 30 30 29 30 32 32 32 31 33 35 36 35 34 34 34 35 36 37 38 36 33 31 29 29 30 29 29 28 26 25 24 21 20 20 18 18 21 24 28 31 35 35 33 31 32 33 36 38 39 39 38 39
25 25 25 26 27 28 28 26 26 27 29 30 29 30 31 31 31 31 32 34 34 34 33 31 30 30 31 32 33 31 29 29 29 28 27 27 27 27 28 26 24 23 21 19 20 20 19 21 24 27 32 34 32 29 29 29 29 30 31 32 32 32 34
24 25 26 26 27 28 27 26 26 27 28 28 29 31 31 30 31 32 33 33 33 31 29 27 26 27 28 29 28 26 26 26 27 26 27 27 28 28 28 26 24 23 22 21 21 20 21 23 25 27 29 30 29 29 30 31 29 26 27 29 29 27 27
25 28 28 27 27 26 25 25 25 25 25 27 29 31 31 30 31 32 31 31 30 27 25 25 26 26 26 24 24 23 24 25 25 25 26 27 28 28 28 27 25 22 20 19 20 21 22 25 27 27 26 27 27 28 30 30 28 27 27 27 25 21 20
29 30 30 28 25 24 24 24 24 23 24 27 30 31 32 31 31 30 29 28 26 24 23 23 24 23 21 21 22 22 22 23 24 25 26 26 27 28 28 27 24 21 20 20 21 21 22 25 28 27 24 23 23 25 27 27 27 27 27 26 23 19 19
31 30 29 27 26 25 25 25 26 26 27 29 30 31 32 32 30 29 28 25 22 20 20 20 20 20 19 20 20 20 20 21 22 23 24 25 27 27 26 25 23 22 23 23 23 23 22 24 27 25 19 17 19 21 24 25 26 27 25 23 20 17 18
31 30 28 26 27 27 25 25 26 26 27 28 30 31 30 29 28 27 26 22 19 18 19 19 18 19 19 19 20 19 20 21 22 22 23 25 27 27 25 24 24 25 26 25 24 23 22 23 26 24 14 10 12 15 19 21 22 23 22 21 18 16 15
29 29 27 25 26 27 27 26 25 25 26 27 29 29 28 27 26 25 23 19 17 16 18 18 17 18 19 19 19 19 20 21 21 22 23 24 25 25 24 25 27 28 28 25 23 23 24 23 25 25 17 9 9 10 12 13 13 14 16 17 17 15 15
27 26 25 25 26 26 27 27 26 26 27 28 27 26 26 25 23 20 19 16 15 15 17 17 17 18 19 19 19 20 21 21 21 22 23 23 23 24 26 28 29 29 26 23 22 23 24 23 23 25 21 12 10 9 9 11 11 11 12 13 12 12 13
26 24 23 23 24 25 25 26 26 26 26 27 27 26 24 23 21 19 16 14 13 14 16 17 17 18 19 19 20 21 21 21 22 23 24 24 24 26 27 28 29 27 24 23 24 23 23 23 23 24 24 17 11 11 11 11 11 11 11 10 10 10 11
27 26 24 22 22 23 23 23 23 24 24 25 25 23 22 23 22 21 19 17 16 16 16 16 16 18 19 20 21 22 22 23 24 24 24 25 25 26 27 28 27 24 23 24 25 23 23 23 23 22 23 23 18 12 11 12 12 12 11 11 10 9 9
29 29 27 24 21 21 21 21 21 22 24 23 22 21 21 21 21 21 20 19 18 18 17 17 17 18 20 21 22 22 23 24 24 24 24 25 24 25 26 27 25 24 24 24 24 23 23 24 24 22 22 23 22 17 13 13 14 13 12 12 11 10 9
Wind_Direction
299 300 300 300 300 300 302 302 302 303 303 302 299 297 296 295 294 292 290 289 287 286 285 285 284 283 282 281 280 278 277 276 274 274 273 272 272 272 271 271 271 272 279 279 277 277 280 283 286 286 283 283 283 282 281 282 283 283 284 284 283 282 281
301 301 300 300 300 300 301 301 301 302 301 300 297 295 294 292 290 289 288 287 286 285 285 284 283 282 282 281 280 278 277 276 274 272 270 269 268 269 268 268 271 274 278 280 278 276 278 280 282 282 282 282 282 281 280 279 278 278 279 280 279 278 276
301 301 301 301 300 301 301 301 301 300 300 298 295 293 291 289 287 287 286 285 284 284 284 283 282 281 282 281 280 278 277 276 274 272 271 269 266 266 266 265 267 269 271 277 278 276 276 277 278 278 280 281 281 281 280 279 277 276 276 276 276 276 274
301 301 300 300 300 301 301 301 300 299 298 295 293 291 289 288 286 285 284 282 282 283 283 282 280 280 280 280 278 276 275 274 274 271 270 270 268 265 266 265 262 261 263 269 274 273 272 274 276 276 278 281 281 281 280 280 279 278 276 275 274 274 273
302 301 299 299 299 299 298 299 298 297 295 293 291 289 288 287 286 284 283 282 281 281 280 278 277 277 278 277 274 273 273 272 271 269 268 268 267 265 265 264 261 259 260 262 267 271 271 272 273 274 275 277 279 282 282 279 277 276 275 275 274 271 269
301 299 298 297 296 296 296 296 296 294 292 291 290 289 287 286 284 283 283 282 281 280 278 276 275 275 274 273 271 271 271 270 268 267 267 265 265 264 263 263 261 260 260 261 263 267 270 271 270 271 273 272 273 277 279 279 277 274 273 273 274 273 269
298 296 296 295 294 295 294 294 293 292 290 289 288 288 286 284 284 283 282 282 281 279 278 276 274 273 272 270 269 269 268 268 267 265 264 263 262 261 260 259 260 259 259 259 261 263 265 267 267 267 268 270 270 270 271 273 275 274 272 270 270 272 272
296 295 294 293 293 293 293 292 291 290 289 289 288 287 285 283 283 283 283 282 281 279 278 277 274 272 271 270 268 267 266 266 266 265 264 262 260 258 257 256 258 257 256 255 257 259 261 263 264 263 264 267 266 263 264 264 266 268 269 267 267 268 269
294 294 293 293 292 292 292 290 289 290 289 287 287 285 284 283 283 283 283 282 282 281 279 278 275 272 271 270 269 268 268 266 263 261 260 260 259 256 255 254 255 254 254 254 254 255 257 259 258 257 259 260 255 252 256 260 261 264 267 270 273 272 271
293 292 291 292 292 293 291 289 289 290 288 285 285 284 282 282 282 281 280 279 280 281 280 279 276 274 273 272 269 267 265 263 261 258 256 258 258 256 253 252 251 251 251 250 249 251 252 253 253 251 252 254 253 251 255 257 257 261 267 272 274 274 273
292 291 291 291 292 292 291 290 291 290 289 289 290 290 287 285 283 280 278 278 280 281 282 281 278 277 275 273 269 266 263 261 260 260 259 258 258 256 254 250 247 246 245 245 245 246 246 245 249 251 250 252 255 253 252 253 253 256 262 264 267 271 273
292 291 291 291 291 291 291 291 291 291 293 295 296 297 296 293 290 285 282 283 283 282 283 282 280 279 276 273 270 269 267 265 264 264 263 261 260 259 257 254 250 246 243 241 242 244 245 244 247 251 249 249 252 252 251 251 250 250 252 255 257 262 266
292 291 291 291 291 291 291 292 293 293 296 298 298 301 302 299 296 293 290 290 287 285 284 282 281 280 278 276 275 273 272 271 269 268 266 265 264 262 261 260 258 255 250 246 244 243 245 246 247 249 250 249 249 251 251 249 248 247 247 249 250 253 259
292 291 291 291 291 291 291 293 294 294 297 300 301 304 304 302 301 299 296 294 291 288 285 283 282 281 280 281 280 278 277 275 272 271 269 268 266 264 262 261 261 261 259 255 251 248 248 249 249 248 251 252 250 249 249 247 247 246 245 247 250 253 257
290 290 291 291 291 291 291 293 295 296 298 301 304 306 306 304 303 302 299 297 295 291 287 284 283 282 281 282 281 279 277 274 271 270 268 266 264 262 261 260 259 258 257 256 254 251 250 251 251 249 251 253 251 248 249 249 249 250 249 252 254 254 256
289 290 290 291 292 291 291 294 297 297 298 302 304 306 306 304 303 302 300 297 295 293 289 286 285 283 282 281 280 279 278 276 272 268 265 263 262 261 260 259 259 258 256 254 254 252 250 249 249 248 248 249 248 247 249 250 250 249 248 250 253 251 250
289 290 291 291 291 290 291 294 297 296 299 303 304 305 305 303 301 300 297 295 294 293 290 287 286 285 285 283 282 281 280 279 276 272 269 266 265 266 265 263 264 263 260 259 257 255 253 250 248 246 246 247 246 243 242 241 241 241 238 238 244 245 244
290 291 291 290 290 291 291 293 295 297 300 304 305 306 305 303 300 298 296 295 294 292 290 289 288 288 287 285 283 282 282 282 283 283 281 279 279 278 275 273 271 268 265 265 264 261 259 257 253 251 249 249 250 247 241 233 230 233 232 229 233 238 240
290 290 290 290 290 291 291 292 295 299 303 305 308 309 306 303 300 298 295 295 295 293 292 291 292 291 289 287 286 286 288 289 290 290 289 290 288 283 279 278 277 273 269 267 266 264 261 259 258 256 253 251 252 253 248 240 235 233 229 226 230 234 235
289 289 290 291 291 292 293 293 296 300 302 304 306 308 307 305 302 298 299 299 298 296 296 297 296 294 292 291 292 293 293 293 293 293 294 295 293 288 285 285 284 280 276 274 272 266 258 253 254 255 253 251 250 250 249 247 244 238 232 229 231 230 229
289 288 290 291 292 292 294 295 297 300 300 301 303 306 308 308 306 303 302 302 302 303 304 302 299 297 295 296 295 294 293 293 295 299 303 304 301 295 294 296 296 292 288 286 284 272 254 246 247 249 250 250 247 245 244 244 244 241 236 233 232 229 228
288 289 290 292 292 292 294 296 298 298 297 298 302 305 307 308 307 306 308 310 312 311 307 303 301 300 299 297 295 294 296 299 303 308 312 311 307 306 307 310 309 301 294 291 286 268 242 237 240 241 243 243 241 241 241 240 241 241 238 237 235 231 229
288 289 290 291 292 292 293 295 296 295 294 297 301 303 305 306 307 309 315 319 317 312 308 305 302 299 297 296 297 301 305 308 310 314 315 312 312 314 315 314 308 299 295 295 287 263 236 234 235 233 236 237 236 237 238 237 238 240 239 239 239 236 234
286 288 289 291 292 293 293 294 294 293 294 297 299 300 303 306 308 312 318 319 314 309 306 301 298 296 298 302 306 310 310 310 310 311 311 312 315 317 315 312 306 300 299 300 293 272 246 239 236 233 235 236 235 236 237 236 238 240 240 241 240 239 236
285 286 287 289 290 291 292 293 292 292 297 299 297 297 300 304 307 309 311 310 306 302 300 297 297 300 303 306 308 309 307 306 307 308 310 313 316 318 317 313 307 304 302 300 298 291 274 258 248 243 242 242 241 238 236 236 237 239 241 241 241 240 239
283 285 285 285 286 288 290 291 290 293 298 298 295 295 298 300 302 303 303 302 299 296 296 297 299 302 303 303 304 305 306 307 308 310 313 317 319 321 320 315 308 304 302 297 294 293 287 278 269 259 252 247 242 236 232 231 232 235 237 237 236 236 237
281 282 282 282 285 287 288 288 290 293 295 295 295 296 298 299 299 300 300 299 296 293 294 297 301 303 303 303 304 305 308 310 312 314 318 321 324 324 322 317 309 302 297 294 293 292 291 291 288 275 257 243 233 229 229 228 226 229 233 233 230 228 231
277 278 279 280 282 284 286 288 291 293 293 293 294 296 297 297 298 299 299 298 298 298 300 305 308 308 307 308 309 311 313 315 316 318 320 322 326 326 323 320 316 310 305 302 300 299 298 299 298 285 259 237 226 224 226 225 223 225 229 230 226 223 224
273 273 275 277 280 286 291 293 294 295 294 293 294 296 298 299 300 303 305 306 307 310 312 314 314 314 313 312 313 313 315 318 320 321 322 324 327 327 325 324 322 320 317 314 310 307 304 302 301 291 266 237 221 220 223 223 221 222 227 228 225 221 220
279 281 284 287 290 294 294 294 297 300 299 298 299 300 303 305 306 308 312 317 318 319 321 323 322 318 316 315 315 315 317 319 321 322 323 325 326 326 326 326 325 325 322 318 314 311 307 304 304 296 268 228 214 217 222 223 222 222 224 225 224 223 222
289 293 296 298 300 301 299 297 300 302 302 303 305 306 309 312 313 315 320 326 329 328 328 328 323 318 316 317 317 317 318 319 319 321 323 324 324 324 326 327 328 328 326 321 318 316 314 313 312 305 278 219 207 217 221 223 224 221 218 220 222 226 230
296 299 302 303 304 305 305 305 305 305 306 307 309 311 316 320 321 321 324 328 331 332 330 327 320 317 317 318 317 318 319 319 318 320 323 323 322 323 325 327 328 329 326 323 322 322 320 318 317 313 299 253 224 234 237 234 232 225 220 220 223 230 234
296 299 302 304 305 306 307 309 311 312 313 314 316 321 326 326 324 323 323 326 332 333 328 324 320 317 317 317 317 318 319 319 318 320 322 323 321 321 322 324 327 329 328 326 327 325 321 319 320 321 315 285 242 240 250 246 241 237 233 229 230 238 237
295 296 298 301 302 304 306 309 311 313 316 317 319 323 329 328 325 324 325 328 331 326 321 321 320 318 317 318 318 319 320 319 319 321 322 322 321 321 322 324 327 330 331 330 329 327 325 324 324 328 329 317 280 244 238 243 244 240 236 233 236 245 242
296 298 298 298 298 301 303 305 308 310 313 314 316 322 331 333 331 330 331 331 328 321 317 318 318 317 317 317 317 318 319 318 319 321 322 322 322 322 323 325 327 329 331 332 330 328 328 329 328 329 332 329 315 280 244 238 244 246 242 237 234 239 242
295 298 299 298 297 299 301 303 307 309 311 314 319 328 337 337 333 330 327 324 323 321 318 316 315 315 316 317 315 316 318 318 318 320 321 321 321 321 322 323 326 329 331 331 330 329 329 330 330 330 331 332 328 316 289 256 243 245 248 244 238 236 239
Height
839 837 836 834 833 831 830 829 827 826 825 823 821 820 819 817 815 814 812 810 808 807 806 804 802 800 799 799 797 795 793 792 791 790 789 788 786 785 783 781 779 774 766 764 767 764 761 761 761 759 758 757 755 754 753 751 750 749 748 748 747 748 748
836 835 833 832 830 829 827 826 825 824 822 820 819 817 815 814 813 811 809 807 805 804 803 801 799 797 796 795 794 792 790 789 788 787 785 784 783 781 780 779 777 773 767 762 762 762 759 759 759 756 754 755 753 751 751 750 748 748 747 746 746 745 744
834 833 831 829 828 826 825 824 822 821 820 818 816 814 812 811 809 807 805 804 802 800 799 798 795 793 792 792 790 788 787 786 784 784 782 780 780 778 776 776 775 772 767 762 759 759 757 756 756 753 751 752 750 749 748 747 745 745 744 743 743 742 741
831 830 829 827 825 824 822 821 819 818 817 815 813 811 809 807 806 804 802 800 798 797 795 794 792 790 789 788 786 784 783 782 781 780 779 776 776 775 772 772 771 769 766 762 758 756 754 753 753 750 748 749 747 745 745 744 742 742 741 739 739 738 737
829 827 826 824 823 821 819 818 817 815 813 811 810 807 805 804 802 800 798 796 794 793 791 790 787 786 785 784 782 780 779 778 778 776 775 774 772 771 769 768 767 765 763 761 756 752 751 751 750 747 745 746 745 742 741 741 739 739 737 736 735 734 733
826 825 823 822 820 818 817 815 814 812 809 807 806 804 802 800 797 795 794 792 790 788 787 785 783 782 782 781 779 777 775 774 774 773 771 770 769 768 767 765 763 762 760 758 754 750 748 747 747 745 742 742 743 740 738 737 735 734 734 733 731 730 729
824 822 821 819 817 816 814 812 810 808 806 804 802 800 797 795 793 791 789 787 785 784 783 781 780 778 777 777 775 773 772 770 770 768 767 765 764 763 762 761 759 758 756 754 751 748 746 743 743 741 738 737 739 738 735 734 732 730 729 729 728 726 725
821 820 818 816 814 813 811 809 807 804 802 800 798 795 793 790 788 786 784 782 780 779 778 776 775 774 772 772 770 768 767 766 765 763 761 760 759 758 757 755 754 753 752 750 747 745 742 740 739 737 735 734 735 734 731 731 730 726 724 725 724 722 721
819 817 815 813 811 809 808 805 803 800 798 796 792 790 788 786 784 782 779 777 775 773 772 770 769 767 766 765 763 762 761 759 758 757 755 753 752 752 751 750 750 748 747 745 743 740 739 737 734 732 731 730 730 729 726 727 726 723 721 721 719 718 718
816 814 811 809 807 805 804 801 799 796 794 791 788 786 784 782 780 778 775 773 770 768 766 765 763 761 759 758 756 755 753 752 751 750 748 746 746 746 746 745 744 743 742 740 738 735 734 733 729 727 727 725 723 724 723 722 722 719 718 719 716 713 714
812 810 808 806 803 801 799 797 794 792 789 786 783 782 780 778 775 774 771 769 766 763 761 759 758 756 754 752 750 749 747 745 744 743 742 741 740 740 739 739 737 736 735 734 732 730 729 727 724 722 722 720 718 719 719 717 717 716 715 715 713 709 709
808 806 804 802 799 797 795 792 790 787 784 781 779 777 775 773 771 769 767 765 763 760 757 754 752 750 749 747 745 743 741 739 738 737 736 734 733 733 732 730 729 728 727 726 725 724 722 721 719 717 716 715 714 714 713 712 712 712 711 710 709 707 705
804 802 800 798 795 793 790 788 785 782 779 776 774 772 770 768 766 764 762 760 758 756 753 750 748 745 742 741 740 738 736 734 732 731 730 728 727 726 724 723 721 720 719 719 719 717 715 714 713 711 709 709 709 709 708 707 706 707 707 705 704 702 701
801 798 796 794 792 789 786 783 781 778 775 772 769 767 765 764 762 760 758 756 754 751 749 746 744 740 737 736 734 733 731 729 727 725 723 722 721 719 717 716 714 713 712 712 712 710 707 706 706 704 702 702 705 704 702 700 700 701 702 700 698 698 698
797 794 793 791 788 785 782 779 777 774 771 768 765 763 761 760 758 756 753 751 749 747 744 742 740 737 733 731 729 727 726 724 722 719 717 715 713 711 709 708 706 705 703 703 703 702 699 698 697 696 695 695 697 697 695 694 695 696 697 696 694 693 694
793 791 789 787 785 782 778 774 772 770 767 764 761 758 757 756 754 752 749 747 745 743 740 738 736 733 729 726 723 721 720 718 716 714 711 708 705 703 701 699 697 695 694 693 691 689 688 687 687 687 686 686 687 688 688 689 690 691 693 692 689 688 688
790 788 785 783 781 779 774 770 768 766 763 760 757 755 754 753 750 748 746 743 740 738 736 734 732 729 726 723 719 716 713 710 708 707 704 701 698 696 693 691 688 686 685 683 681 678 676 675 674 675 675 675 676 677 679 681 682 683 685 685 683 682 682
786 784 782 780 777 776 772 767 764 763 760 756 753 751 751 749 746 744 741 738 736 734 732 730 728 726 723 719 714 711 707 704 702 700 698 695 693 690 687 683 681 679 677 674 672 669 667 666 665 665 665 665 666 667 670 672 671 672 675 677 676 675 676
782 779 778 776 774 772 770 765 761 759 756 752 749 748 747 745 743 740 738 735 732 729 727 725 723 721 718 714 710 706 702 698 696 695 692 690 686 683 678 675 674 672 670 667 664 661 659 657 657 657 658 659 660 661 663 664 664 665 668 669 669 669 671
779 776 773 772 770 768 766 762 758 756 753 749 746 744 743 742 740 737 734 731 728 725 723 721 719 716 713 710 706 702 698 694 691 689 687 684 680 676 672 670 668 666 663 660 656 652 649 648 649 649 650 652 653 655 656 657 658 659 661 661 661 662 663
775 772 769 768 766 764 762 760 756 753 750 747 744 741 739 738 737 734 731 728 725 722 720 717 714 711 709 707 703 698 694 690 686 684 681 678 675 671 668 665 663 660 657 653 647 642 640 641 642 643 643 644 646 647 648 649 651 652 653 653 653 654 656
771 769 765 763 762 760 758 756 754 751 749 746 743 739 737 735 733 731 728 725 722 720 717 713 710 707 705 702 698 693 690 686 682 679 676 673 670 666 663 660 657 654 651 646 640 635 634 635 636 636 637 637 639 640 640 641 642 643 644 644 644 646 649
768 765 762 759 758 756 755 753 751 749 747 744 741 738 734 732 729 727 725 722 719 716 713 710 707 703 700 697 693 689 685 681 678 675 672 669 666 663 659 656 653 650 646 642 636 632 630 630 630 630 630 631 631 631 632 633 634 635 636 636 637 640 642
764 762 759 756 753 752 751 750 748 746 744 742 739 736 732 729 726 724 722 720 716 713 710 707 703 699 695 692 689 685 682 678 676 674 671 668 665 661 658 655 651 647 643 639 634 630 627 626 625 625 625 624 624 624 625 627 628 629 630 631 632 634 636
762 759 757 753 750 748 747 746 744 742 741 739 736 733 730 727 724 722 720 718 714 711 707 704 700 696 693 690 687 684 680 676 674 672 669 666 663 659 656 653 649 645 641 637 633 629 625 623 621 620 619 619 619 621 622 623 624 624 625 626 628 629 630
759 756 754 751 748 745 743 742 740 739 737 735 732 730 727 725 722 720 717 715 711 707 703 700 697 694 691 688 685 682 679 675 671 669 666 663 660 657 654 650 647 643 639 635 631 628 624 620 618 616 615 614 616 617 617 618 619 620 621 622 623 624 624
756 754 751 747 745 742 740 738 736 734 733 731 728 726 723 721 719 716 713 710 706 702 699 696 694 691 689 686 683 680 677 673 670 666 663 660 657 654 651 648 645 641 637 633 630 626 622 618 615 612 610 609 610 610 610 612 614 616 616 617 618 619 619
753 750 747 744 742 739 736 734 732 731 729 727 725 722 720 717 715 712 709 705 701 698 695 693 690 688 685 683 680 677 675 671 668 665 661 658 655 652 649 646 642 638 635 632 628 624 619 615 611 607 603 602 603 603 604 606 609 610 611 612 613 613 614
747 745 742 740 739 736 733 729 728 727 726 724 722 719 717 714 711 708 705 702 698 695 692 690 688 686 683 681 678 675 672 669 666 663 659 656 653 650 647 643 640 636 633 630 626 622 617 612 607 602 598 596 597 598 599 602 604 605 606 607 607 608 608
743 741 740 738 736 734 731 728 725 724 723 720 718 716 713 710 707 704 702 699 696 693 690 688 686 684 682 680 678 674 671 668 665 661 658 654 652 649 646 642 639 635 632 628 624 620 616 611 606 599 594 593 593 594 596 598 599 599 600 602 603 603 603
740 739 738 736 733 731 729 726 724 722 719 717 714 711 709 706 704 701 698 696 693 691 689 687 686 683 682 680 677 674 671 668 665 662 658 654 651 648 645 642 638 634 630 626 622 618 615 610 605 599 594 592 592 593 593 594 594 595 596 597 598 598 598
737 736 734 733 731 728 726 724 722 719 717 714 711 709 706 703 700 698 696 694 692 690 689 687 685 683 681 679 676 673 671 668 665 662 658 655 651 647 644 641 637 634 630 626 622 618 614 610 605 600 595 593 592 592 592 592 592 593 593 594 594 594 594
735 733 732 730 728 726 723 721 719 717 714 711 708 705 703 701 698 697 695 693 691 689 688 687 685 683 681 679 676 673 670 668 665 662 659 655 652 648 644 641 637 634 630 627 623 620 615 611 607 602 597 593 592 592 592 591 591 591 591 592 592 592 591
732 731 729 728 725 723 721 719 716 714 712 709 706 703 701 699 696 695 694 692 690 689 687 686 684 682 680 678 675 673 670 667 664 661 658 655 652 648 644 641 637 634 630 627 623 620 616 612 608 604 599 595 593 591 591 590 590 590 590 590 590 590 589
727 726 726 725 723 721 719 717 715 713 710 708 705 702 700 696 694 693 691 690 689 688 686 685 683 681 679 677 675 672 670 667 664 661 658 655 652 648 644 641 637 634 631 628 624 620 617 614 610 606 602 598 594 591 590 589 588 588 588 588 589 589 588
723 722 722 721 720 719 717 715 713 711 708 706 704 702 699 697 695 693 691 689 688 687 685 684 682 681 679 677 674 672 669 666 663 661 658 655 652 648 645 641 638 634 632 629 625 622 618 614 611 607 604 600 595 592 589 588 587 587 586 587 587 587 587